QPF
0.00 0.00 0.00 0.00 0.00 0.00 0.00 0.00 0.00 0.00 0.00 0.00 0.00 0.00 0.00 0.00 0.00 0.00 0.00 0.00 0.00 0.00 0.00 0.00 0.00 0.00 0.00 0.00 0.00 0.00 0.00 0.00 0.00 0.00 0.00 0.00 0.00 0.00 0.00 0.00 0.00 0.00 0.00 0.00
0.00 0.00 0.00 0.00 0.00 0.00 0.00 0.00 0.00 0.00 0.00 0.00 0.00 0.00 0.00 0.00 0.00 0.00 0.00 0.00 0.00 0.00 0.00 0.00 0.00 0.00 0.00 0.00 0.00 0.00 0.00 0.00 0.00 0.00 0.00 0.00 0.00 0.00 0.00 0.00 0.00 0.00 0.00 0.00
0.00 0.00 0.00 0.00 0.00 0.00 0.00 0.00 0.00 0.00 0.00 0.00 0.00 0.00 0.00 0.00 0.00 0.00 0.00 0.00 0.00 0.00 0.00 0.00 0.00 0.00 0.00 0.00 0.00 0.00 0.00 0.00 0.00 0.00 0.00 0.00 0.00 0.00 0.00 0.00 0.00 0.00 0.00 0.00
0.00 0.00 0.00 0.00 0.00 0.00 0.00 0.00 0.00 0.00 0.00 0.00 0.00 0.00 0.00 0.00 0.00 0.00 0.00 0.00 0.00 0.00 0.00 0.00 0.00 0.00 0.00 0.00 0.00 0.00 0.00 0.00 0.00 0.00 0.00 0.00 0.00 0.00 0.00 0.00 0.00 0.00 0.00 0.00
0.00 0.00 0.00 0.00 0.00 0.00 0.00 0.00 0.00 0.00 0.00 0.00 0.00 0.00 0.00 0.00 0.00 0.00 0.00 0.00 0.00 0.00 0.00 0.00 0.00 0.00 0.00 0.00 0.00 0.00 0.00 0.00 0.00 0.00 0.00 0.00 0.00 0.00 0.00 0.00 0.00 0.00 0.00 0.00
0.00 0.00 0.00 0.00 0.00 0.00 0.00 0.00 0.00 0.00 0.00 0.00 0.00 0.00 0.00 0.00 0.00 0.00 0.00 0.00 0.00 0.00 0.00 0.00 0.00 0.00 0.00 0.00 0.00 0.00 0.00 0.00 0.00 0.00 0.00 0.00 0.00 0.00 0.00 0.00 0.00 0.00 0.00 0.00
0.00 0.00 0.00 0.00 0.00 0.00 0.00 0.00 0.00 0.00 0.00 0.00 0.00 0.00 0.00 0.00 0.00 0.00 0.00 0.00 0.00 0.00 0.00 0.00 0.00 0.00 0.00 0.00 0.00 0.00 0.00 0.00 0.00 0.00 0.00 0.00 0.00 0.00 0.00 0.00 0.00 0.00 0.00 0.00
0.00 0.00 0.00 0.00 0.00 0.00 0.00 0.00 0.00 0.00 0.00 0.00 0.00 0.00 0.00 0.00 0.00 0.00 0.00 0.00 0.00 0.00 0.00 0.00 0.00 0.00 0.00 0.00 0.00 0.00 0.00 0.00 0.00 0.00 0.00 0.00 0.00 0.00 0.00 0.00 0.00 0.00 0.00 0.00
0.00 0.00 0.00 0.00 0.00 0.00 0.00 0.00 0.00 0.00 0.00 0.00 0.00 0.00 0.00 0.00 0.00 0.00 0.00 0.00 0.00 0.00 0.00 0.00 0.00 0.00 0.00 0.00 0.00 0.00 0.00 0.00 0.00 0.00 0.00 0.00 0.00 0.00 0.00 0.00 0.00 0.00 0.00 0.00
0.00 0.00 0.00 0.00 0.00 0.00 0.00 0.00 0.00 0.00 0.00 0.00 0.00 0.00 0.00 0.00 0.00 0.00 0.00 0.00 0.00 0.00 0.00 0.00 0.00 0.00 0.00 0.00 0.00 0.00 0.00 0.00 0.00 0.00 0.00 0.00 0.00 0.00 0.00 0.00 0.00 0.00 0.00 0.00
0.00 0.00 0.00 0.00 0.00 0.00 0.00 0.00 0.00 0.00 0.00 0.00 0.00 0.00 0.00 0.00 0.00 0.00 0.00 0.00 0.00 0.00 0.00 0.00 0.00 0.00 0.00 0.00 0.00 0.00 0.00 0.00 0.00 0.00 0.00 0.00 0.00 0.00 0.00 0.00 0.00 0.00 0.00 0.00
0.00 0.00 0.00 0.00 0.00 0.00 0.00 0.00 0.00 0.00 0.00 0.00 0.00 0.00 0.00 0.00 0.00 0.00 0.00 0.00 0.00 0.00 0.00 0.00 0.00 0.00 0.00 0.00 0.00 0.00 0.00 0.00 0.00 0.00 0.00 0.01 0.00 0.00 0.00 0.00 0.00 0.00 0.00 0.00
0.00 0.00 0.00 0.00 0.00 0.00 0.00 0.00 0.00 0.00 0.00 0.00 0.00 0.00 0.00 0.00 0.00 0.00 0.00 0.00 0.00 0.00 0.00 0.00 0.00 0.00 0.00 0.00 0.00 0.00 0.00 0.00 0.00 0.00 0.01 0.02 0.02 0.01 0.00 0.00 0.00 0.00 0.00 0.00
0.00 0.00 0.00 0.00 0.00 0.00 0.00 0.00 0.00 0.00 0.00 0.00 0.00 0.00 0.00 0.00 0.00 0.00 0.00 0.00 0.00 0.00 0.00 0.00 0.00 0.00 0.00 0.00 0.00 0.00 0.00 0.00 0.00 0.00 0.00 0.02 0.03 0.01 0.00 0.00 0.00 0.00 0.00 0.00
0.00 0.00 0.00 0.00 0.00 0.00 0.00 0.00 0.00 0.00 0.00 0.00 0.00 0.00 0.00 0.00 0.00 0.00 0.00 0.00 0.00 0.00 0.00 0.00 0.00 0.00 0.00 0.00 0.00 0.00 0.00 0.00 0.00 0.00 0.00 0.02 0.06 0.04 0.01 0.00 0.00 0.00 0.00 0.00
0.00 0.00 0.00 0.00 0.00 0.00 0.00 0.00 0.00 0.00 0.00 0.00 0.00 0.00 0.00 0.00 0.00 0.00 0.00 0.00 0.00 0.00 0.00 0.00 0.00 0.00 0.00 0.00 0.00 0.00 0.00 0.00 0.00 0.00 0.02 0.11 0.14 0.07 0.01 0.00 0.00 0.00 0.00 0.00
0.00 0.00 0.00 0.00 0.00 0.00 0.00 0.00 0.00 0.00 0.00 0.00 0.00 0.00 0.00 0.00 0.00 0.00 0.00 0.00 0.00 0.00 0.00 0.00 0.00 0.00 0.00 0.00 0.00 0.00 0.00 0.00 0.00 0.02 0.08 0.17 0.19 0.13 0.03 0.00 0.00 0.00 0.00 0.00
0.00 0.00 0.00 0.00 0.00 0.00 0.00 0.00 0.00 0.00 0.00 0.00 0.00 0.00 0.00 0.00 0.00 0.00 0.00 0.00 0.00 0.00 0.00 0.00 0.00 0.00 0.00 0.00 0.00 0.00 0.00 0.00 0.02 0.08 0.12 0.19 0.16 0.10 0.02 0.00 0.00 0.00 0.00 0.00
0.00 0.00 0.00 0.00 0.00 0.00 0.00 0.00 0.00 0.00 0.00 0.00 0.00 0.00 0.00 0.00 0.00 0.00 0.00 0.00 0.00 0.00 0.00 0.00 0.00 0.00 0.00 0.00 0.00 0.00 0.00 0.00 0.02 0.01 0.02 0.17 0.09 0.04 0.01 0.00 0.00 0.00 0.00 0.00
0.00 0.00 0.00 0.00 0.00 0.00 0.00 0.00 0.00 0.00 0.00 0.00 0.00 0.00 0.00 0.00 0.00 0.00 0.00 0.00 0.00 0.00 0.00 0.00 0.00 0.00 0.00 0.00 0.00 0.00 0.00 0.00 0.00 0.03 0.11 0.20 0.08 0.01 0.00 0.00 0.00 0.01 0.00 0.03
0.00 0.00 0.00 0.00 0.00 0.00 0.00 0.00 0.00 0.00 0.00 0.00 0.00 0.00 0.00 0.00 0.00 0.00 0.00 0.00 0.00 0.00 0.00 0.00 0.00 0.00 0.00 0.00 0.00 0.00 0.00 0.00 0.03 0.08 0.09 0.05 0.01 0.01 0.01 0.03 0.05 0.05 0.13 0.15
0.01 0.00 0.00 0.00 0.00 0.00 0.00 0.00 0.00 0.00 0.00 0.00 0.00 0.00 0.00 0.00 0.00 0.00 0.00 0.00 0.00 0.00 0.00 0.00 0.00 0.00 0.00 0.00 0.00 0.00 0.00 0.02 0.04 0.07 0.09 0.08 0.06 0.04 0.05 0.09 0.10 0.15 0.18 0.17
0.01 0.01 0.01 0.00 0.00 0.00 0.00 0.00 0.00 0.00 0.00 0.00 0.00 0.00 0.00 0.00 0.00 0.00 0.00 0.00 0.00 0.00 0.00 0.00 0.00 0.00 0.00 0.00 0.00 0.00 0.01 0.03 0.05 0.08 0.10 0.08 0.05 0.04 0.04 0.05 0.06 0.03 0.04 0.04
0.00 0.00 0.00 0.01 0.00 0.00 0.00 0.00 0.00 0.00 0.01 0.00 0.00 0.00 0.00 0.00 0.00 0.00 0.00 0.00 0.00 0.00 0.00 0.00 0.00 0.00 0.00 0.00 0.00 0.01 0.03 0.06 0.10 0.11 0.12 0.10 0.05 0.02 0.01 0.00 0.01 0.03 0.03 0.02
0.00 0.00 0.00 0.00 0.00 0.00 0.01 0.01 0.02 0.02 0.02 0.02 0.01 0.01 0.00 0.00 0.00 0.00 0.00 0.00 0.00 0.00 0.00 0.00 0.00 0.00 0.00 0.00 0.04 0.11 0.18 0.20 0.19 0.11 0.08 0.03 0.01 0.00 0.00 0.00 0.00 0.01 0.02 0.02
0.00 0.00 0.00 0.00 0.00 0.00 0.00 0.00 0.00 0.00 0.00 0.00 0.00 0.00 0.00 0.00 0.00 0.00 0.00 0.00 0.00 0.00 0.00 0.00 0.00 0.03 0.09 0.17 0.28 0.30 0.22 0.16 0.09 0.03 0.01 0.01 0.00 0.00 0.00 0.00 0.01 0.01 0.01 0.01
MSLP
1002.56 1003.03 1003.19 1003.53 1003.67 1004.08 1004.72 1005.37 1005.24 1004.82 1005.10 1006.17 1006.92 1007.41 1007.86 1008.49 1009.05 1009.32 1009.58 1009.86 1010.13 1010.24 1010.33 1010.81 1011.25 1011.82 1012.50 1012.90 1013.29 1013.73 1014.24 1014.49 1014.84 1015.31 1015.70 1015.90 1015.91 1015.88 1015.93 1015.84 1015.87 1016.01 1016.08 1016.27
1003.00 1002.79 1002.42 1002.64 1003.16 1003.65 1004.10 1004.64 1005.15 1005.13 1005.11 1005.96 1007.17 1007.61 1007.78 1008.03 1007.89 1007.89 1008.39 1008.86 1009.10 1009.66 1010.14 1010.57 1011.08 1011.63 1012.09 1012.56 1013.02 1013.51 1013.84 1014.11 1014.42 1014.71 1015.14 1015.46 1015.72 1015.75 1015.66 1015.65 1015.72 1015.77 1015.92 1016.12
1002.54 1002.05 1002.01 1002.33 1002.61 1003.15 1003.81 1003.95 1004.17 1004.74 1005.67 1006.32 1007.29 1008.63 1008.44 1008.09 1007.97 1007.94 1007.89 1008.03 1008.60 1008.85 1009.48 1010.10 1010.61 1011.09 1011.64 1012.24 1012.62 1013.05 1013.30 1013.63 1014.05 1014.38 1014.90 1015.37 1015.70 1015.82 1015.90 1015.98 1016.05 1016.01 1015.94 1016.07
1002.31 1001.33 1001.63 1001.75 1001.81 1002.19 1002.90 1002.86 1003.32 1004.64 1005.94 1006.43 1006.62 1008.25 1008.12 1007.83 1007.78 1007.62 1007.44 1007.43 1007.58 1008.05 1008.73 1009.24 1009.79 1010.55 1011.06 1011.56 1012.06 1012.51 1012.94 1013.32 1013.75 1014.14 1014.56 1015.03 1015.44 1015.94 1015.84 1015.82 1015.91 1016.06 1015.98 1016.17
1001.32 1000.75 1000.78 1001.07 1000.95 1001.49 1001.91 1002.42 1003.30 1004.38 1005.56 1006.56 1007.26 1007.61 1006.93 1007.22 1007.42 1006.42 1006.08 1006.31 1006.78 1007.36 1007.93 1008.43 1009.00 1009.48 1010.03 1010.86 1011.46 1012.00 1012.60 1013.09 1013.40 1013.92 1014.27 1014.73 1015.26 1015.60 1015.55 1015.82 1016.02 1016.14 1016.22 1016.26
1000.82 1000.27 1000.14 1000.08 1000.13 1000.96 1001.08 1002.37 1003.71 1005.16 1006.20 1006.97 1006.45 1006.66 1006.54 1006.10 1004.85 1004.29 1005.12 1005.32 1005.79 1006.42 1007.17 1007.86 1008.48 1009.38 1009.79 1010.37 1010.94 1011.54 1012.20 1012.68 1013.11 1013.49 1013.94 1014.36 1014.98 1015.32 1015.71 1015.99 1016.28 1016.33 1016.24 1016.28
1000.74 1000.21 999.84 999.62 1000.02 1000.83 1001.67 1003.53 1005.17 1006.46 1007.06 1007.00 1005.69 1006.35 1004.30 1003.49 1002.63 1002.38 1002.96 1003.86 1004.53 1005.51 1006.50 1007.30 1007.98 1008.60 1009.26 1009.70 1010.10 1010.70 1011.38 1012.05 1012.57 1013.07 1013.54 1014.00 1014.38 1014.87 1015.37 1015.79 1016.05 1016.35 1016.44 1016.50
1001.26 1000.53 999.66 999.41 999.76 1000.55 1001.76 1003.03 1004.95 1006.05 1007.14 1006.70 1006.01 1005.19 1002.77 1001.50 1001.40 1001.58 1002.28 1002.76 1003.80 1004.69 1005.38 1006.13 1006.69 1007.35 1008.02 1008.66 1009.19 1009.77 1010.66 1011.40 1012.12 1012.69 1013.15 1013.55 1013.92 1014.46 1014.91 1015.23 1015.68 1015.95 1016.06 1015.91
1001.25 1000.42 999.47 999.19 999.40 1000.09 1001.28 1002.46 1003.18 1004.94 1006.52 1006.38 1005.31 1003.92 1001.95 1000.91 1000.99 1001.18 1001.55 1002.56 1003.08 1003.55 1004.42 1005.05 1005.93 1006.61 1007.26 1007.92 1008.29 1008.67 1009.60 1010.46 1011.26 1011.99 1012.65 1013.18 1013.60 1014.21 1014.52 1014.95 1015.12 1015.52 1015.64 1015.71
1000.16 1000.46 999.46 998.99 999.07 999.38 999.85 1001.21 1003.20 1004.66 1005.75 1005.95 1004.97 1003.52 1002.01 1001.19 1000.63 1001.02 1001.48 1001.65 1002.10 1002.74 1003.66 1004.50 1005.11 1005.72 1006.23 1006.62 1007.22 1008.14 1008.88 1009.59 1010.29 1011.12 1011.85 1012.46 1013.01 1013.36 1013.97 1014.40 1014.69 1014.82 1015.14 1015.46
999.83 1000.16 999.67 999.01 998.72 998.85 1000.06 1000.78 1002.36 1003.43 1004.46 1004.95 1004.66 1002.88 1000.78 1000.01 999.99 1000.38 1000.44 1000.58 1001.05 1001.89 1002.68 1003.31 1003.92 1004.56 1005.02 1005.65 1006.67 1007.34 1008.40 1009.10 1009.77 1010.32 1011.08 1011.77 1012.36 1012.91 1013.53 1013.81 1014.15 1014.50 1014.80 1015.12
998.87 999.59 999.93 998.85 998.30 998.09 998.63 999.61 1000.79 1002.41 1003.99 1004.18 1003.41 1001.37 999.71 999.24 999.38 999.93 1000.09 1000.33 1000.72 1001.26 1001.97 1002.72 1003.18 1003.64 1004.56 1005.04 1005.89 1006.51 1007.41 1008.13 1008.72 1009.48 1010.40 1011.07 1011.65 1012.50 1013.20 1013.66 1013.73 1013.88 1014.30 1014.54
997.84 998.83 999.53 999.16 998.56 998.14 998.42 999.21 1000.13 1001.12 1001.77 1002.66 1002.62 1001.00 999.59 999.19 999.26 999.60 1000.20 1000.47 1000.67 1001.01 1001.76 1002.11 1002.78 1003.28 1003.61 1004.23 1004.89 1005.47 1006.43 1006.99 1007.92 1008.74 1009.59 1010.57 1011.40 1012.10 1012.48 1012.74 1013.14 1013.53 1013.83 1014.09
996.03 997.65 998.24 997.67 997.44 997.43 997.93 998.23 998.98 999.47 1000.95 1001.31 1000.96 1000.27 999.49 999.38 999.06 999.42 999.56 1000.31 1000.41 1000.65 1001.00 1001.43 1002.19 1002.49 1002.83 1003.45 1004.14 1005.01 1005.62 1006.37 1007.11 1007.78 1008.72 1009.55 1010.14 1010.86 1011.47 1011.99 1012.53 1012.98 1013.35 1013.77
995.55 996.74 997.32 996.72 996.67 997.01 996.82 997.26 997.93 998.21 998.32 999.27 999.35 999.43 998.67 998.42 998.28 998.44 998.55 999.44 1000.26 1000.40 1000.77 1001.09 1001.42 1001.71 1002.18 1002.86 1003.55 1004.21 1004.92 1005.61 1006.03 1006.81 1007.61 1008.36 1009.20 1010.13 1011.01 1011.06 1011.53 1012.32 1012.84 1012.91
995.55 996.06 996.46 996.62 996.15 996.32 996.35 996.12 996.65 997.07 997.22 997.39 997.69 998.10 997.10 996.98 997.77 998.32 998.44 998.92 999.58 999.99 1000.30 1000.66 1001.13 1001.68 1002.03 1002.17 1002.70 1003.32 1003.97 1004.69 1005.44 1005.92 1006.22 1008.22 1009.99 1010.86 1011.22 1010.94 1010.91 1011.46 1012.12 1012.60
996.47 996.43 996.84 996.62 996.19 996.31 996.02 995.22 995.38 995.88 996.28 996.41 997.04 997.08 997.01 997.54 997.70 997.76 998.01 998.35 998.84 999.44 1000.12 1000.68 1001.07 1001.39 1001.62 1001.84 1002.30 1002.78 1003.36 1004.35 1005.06 1005.30 1006.46 1007.68 1008.49 1009.93 1010.24 1010.71 1010.84 1010.66 1011.05 1012.08
996.64 996.80 997.19 996.87 996.78 996.63 995.38 994.52 994.39 995.63 996.26 996.28 996.61 996.36 996.37 996.59 996.48 996.99 997.69 997.66 998.67 999.16 999.67 1000.05 1000.52 1000.98 1000.92 1001.20 1001.61 1002.14 1003.06 1003.77 1004.52 1005.26 1006.43 1007.28 1007.24 1008.94 1009.57 1009.55 1009.89 1010.16 1010.74 1011.22
996.75 997.01 997.97 998.18 997.56 996.91 996.26 996.08 996.28 995.39 996.93 996.84 996.22 996.54 996.75 996.93 997.43 997.77 997.76 998.08 998.10 998.59 999.05 999.59 999.92 1000.09 1000.33 1000.91 1001.11 1001.83 1002.89 1003.49 1004.23 1004.72 1005.95 1006.64 1007.39 1008.54 1008.47 1008.73 1009.03 1009.58 1010.52 1011.19
997.32 997.07 997.84 998.61 998.36 998.14 997.49 997.15 996.60 996.49 996.96 996.61 996.07 997.05 997.10 997.49 998.51 998.75 998.47 998.74 998.81 998.94 999.22 999.55 999.77 1000.00 1000.37 1000.59 1001.17 1002.03 1002.96 1003.59 1004.02 1004.73 1005.66 1006.43 1007.13 1007.40 1008.07 1008.74 1009.43 1009.94 1010.33 1010.75
999.04 998.90 1000.00 999.64 999.44 999.43 999.42 998.49 997.36 997.54 999.11 997.58 997.50 998.05 997.65 998.86 999.70 999.60 999.07 999.29 999.55 999.79 999.95 999.83 999.70 999.83 1000.06 1000.70 1001.45 1002.39 1003.23 1003.91 1004.57 1005.34 1005.96 1006.38 1007.19 1007.88 1008.35 1008.97 1009.65 1010.43 1011.30 1011.08
1000.71 1000.41 1001.58 1000.94 1000.79 1000.60 999.54 998.65 999.29 1000.05 999.78 999.30 999.37 998.66 998.58 999.24 999.50 999.74 1000.03 1000.07 999.87 999.71 999.85 999.85 1000.24 1000.13 1000.71 1000.45 1001.86 1002.94 1003.56 1004.06 1004.79 1005.59 1006.42 1006.99 1007.59 1008.10 1008.57 1009.02 1009.25 1009.09 1010.64 1011.16
1000.92 1001.38 1002.38 1002.54 1002.12 1001.64 1001.34 1000.95 1000.96 1000.69 1000.02 999.99 999.33 999.61 999.57 999.50 999.83 1000.34 1000.92 1000.51 1000.49 1000.61 1000.57 1000.92 1000.63 1000.69 1000.86 1001.39 1001.82 1002.92 1003.97 1004.12 1005.12 1005.90 1006.74 1007.45 1008.18 1008.21 1008.27 1008.37 1008.91 1009.06 1010.16 1011.18
1000.74 1001.41 1002.45 1002.44 1002.27 1002.47 1001.70 1001.17 1001.40 1001.35 1001.13 1000.84 1000.45 1000.15 999.88 1000.26 1000.11 1000.01 1000.49 1001.05 1001.30 1001.69 1001.78 1001.48 1001.19 1002.07 1002.48 1002.26 1002.40 1002.96 1003.87 1004.34 1005.17 1006.49 1007.32 1007.78 1007.97 1007.94 1007.87 1007.34 1008.80 1009.80 1010.27 1011.35
1001.31 1000.55 1001.80 1002.88 1002.68 1002.91 1002.18 1001.66 1001.51 1001.87 1001.77 1001.32 1000.60 1000.86 1000.93 1000.54 1000.56 1000.18 1000.71 1001.36 1001.37 1001.50 1001.80 1002.42 1002.08 1003.36 1003.98 1003.97 1004.36 1004.99 1005.61 1005.35 1005.96 1006.22 1007.27 1007.84 1008.48 1008.88 1008.97 1009.53 1009.28 1010.19 1010.73 1011.30
1002.13 1001.86 1001.64 1001.50 1002.18 1000.84 1002.56 1002.23 1002.31 1001.95 1002.67 1002.09 1002.02 1002.21 1002.38 1001.88 1002.11 1001.98 1001.77 1002.73 1003.10 1003.09 1003.69 1003.55 1003.07 1003.81 1004.60 1004.72 1004.28 1005.14 1005.44 1005.78 1006.57 1006.74 1007.14 1007.67 1007.50 1007.97 1009.46 1010.02 1010.74 1010.82 1010.89 1011.22
Thickness
5821 5801 5787 5804 5813 5807 5803 5794 5799 5818 5827 5812 5804 5803 5809 5811 5806 5802 5802 5802 5803 5805 5812 5811 5809 5807 5802 5798 5796 5793 5790 5789 5788 5783 5778 5776 5774 5775 5775 5774 5771 5769 5767 5763
5802 5788 5819 5827 5820 5812 5808 5798 5792 5815 5824 5814 5801 5799 5812 5812 5813 5816 5813 5810 5812 5811 5809 5811 5809 5805 5803 5799 5797 5795 5793 5792 5791 5788 5783 5779 5776 5775 5775 5773 5770 5768 5765 5762
5789 5812 5826 5822 5817 5807 5800 5798 5802 5802 5809 5810 5799 5779 5793 5809 5815 5818 5822 5823 5819 5815 5811 5810 5809 5807 5805 5800 5799 5798 5797 5794 5791 5789 5785 5780 5776 5772 5769 5767 5765 5763 5762 5759
5796 5825 5817 5815 5814 5815 5794 5823 5826 5809 5793 5769 5806 5748 5781 5800 5805 5814 5820 5821 5823 5820 5818 5816 5813 5809 5808 5806 5804 5801 5797 5795 5791 5789 5785 5780 5772 5765 5766 5765 5763 5760 5758 5755
5790 5812 5810 5806 5818 5826 5813 5831 5821 5813 5796 5782 5781 5763 5785 5797 5789 5812 5825 5827 5827 5823 5821 5818 5816 5815 5816 5812 5806 5802 5797 5793 5792 5788 5785 5779 5771 5768 5767 5763 5759 5756 5754 5751
5800 5826 5822 5819 5837 5833 5846 5827 5802 5786 5776 5748 5780 5775 5771 5790 5813 5828 5830 5832 5833 5828 5825 5821 5819 5815 5813 5813 5808 5802 5796 5793 5791 5788 5784 5779 5770 5765 5761 5757 5753 5750 5749 5746
5789 5798 5820 5832 5817 5825 5817 5787 5745 5745 5739 5735 5783 5770 5790 5820 5841 5846 5842 5839 5840 5834 5824 5820 5817 5814 5811 5810 5809 5805 5800 5794 5791 5787 5782 5777 5772 5766 5761 5755 5750 5745 5741 5738
5749 5755 5797 5820 5809 5798 5798 5786 5742 5728 5721 5753 5768 5753 5801 5844 5852 5857 5851 5850 5843 5836 5831 5827 5825 5822 5818 5814 5811 5808 5801 5796 5789 5784 5779 5775 5771 5766 5761 5755 5748 5743 5739 5737
5737 5753 5806 5813 5822 5816 5798 5772 5800 5763 5754 5743 5757 5788 5824 5844 5841 5850 5849 5845 5842 5843 5836 5835 5830 5824 5819 5814 5813 5813 5806 5799 5791 5783 5777 5773 5768 5762 5757 5752 5748 5741 5738 5736
5766 5755 5791 5809 5818 5817 5809 5811 5772 5751 5737 5737 5754 5779 5784 5825 5830 5836 5839 5842 5846 5847 5841 5837 5833 5827 5825 5824 5821 5816 5809 5801 5794 5786 5779 5774 5768 5763 5756 5750 5746 5743 5738 5734
5762 5757 5775 5798 5784 5790 5791 5783 5778 5772 5754 5737 5735 5757 5813 5836 5836 5836 5846 5853 5854 5850 5846 5844 5841 5836 5834 5831 5823 5817 5806 5798 5791 5787 5781 5774 5767 5759 5751 5747 5744 5739 5735 5730
5763 5750 5751 5770 5801 5818 5808 5796 5794 5771 5750 5747 5752 5766 5839 5843 5842 5845 5848 5853 5851 5854 5851 5846 5843 5841 5833 5831 5825 5820 5811 5803 5796 5788 5779 5772 5766 5755 5746 5741 5739 5738 5733 5728
5761 5733 5726 5745 5776 5797 5790 5793 5791 5778 5771 5751 5752 5766 5834 5840 5841 5843 5839 5843 5846 5848 5843 5847 5842 5837 5836 5834 5828 5823 5815 5809 5800 5789 5780 5768 5758 5751 5745 5742 5737 5732 5728 5723
5789 5738 5752 5751 5768 5786 5786 5796 5793 5794 5762 5760 5766 5796 5822 5827 5835 5837 5842 5841 5843 5846 5846 5845 5840 5839 5839 5836 5831 5823 5817 5810 5802 5792 5780 5769 5761 5754 5746 5740 5734 5728 5723 5716
5775 5752 5748 5782 5794 5790 5798 5801 5795 5793 5803 5792 5796 5793 5817 5827 5835 5841 5846 5843 5836 5841 5840 5841 5839 5839 5837 5833 5827 5822 5816 5810 5804 5792 5781 5771 5761 5751 5740 5739 5731 5723 5717 5714
5772 5756 5761 5764 5783 5794 5792 5805 5805 5803 5800 5811 5804 5799 5833 5845 5838 5835 5841 5840 5836 5834 5835 5836 5836 5832 5830 5832 5828 5824 5817 5810 5800 5791 5785 5763 5750 5728 5728 5728 5724 5722 5714 5707
5758 5762 5745 5753 5776 5780 5765 5796 5802 5808 5813 5818 5794 5815 5826 5827 5828 5833 5835 5840 5837 5834 5832 5830 5827 5826 5827 5828 5827 5822 5816 5806 5795 5790 5777 5756 5750 5735 5733 5724 5719 5720 5714 5703
5756 5755 5747 5763 5758 5732 5790 5817 5819 5803 5809 5814 5816 5825 5829 5832 5843 5842 5839 5839 5832 5833 5832 5831 5827 5825 5828 5829 5827 5821 5811 5803 5793 5783 5769 5758 5723 5730 5730 5725 5719 5715 5707 5702
5752 5748 5732 5728 5738 5767 5778 5791 5789 5808 5792 5804 5814 5820 5824 5828 5830 5826 5837 5836 5836 5834 5832 5830 5828 5827 5827 5824 5822 5813 5802 5796 5786 5779 5763 5757 5747 5733 5732 5726 5719 5710 5697 5687
5750 5749 5745 5725 5738 5731 5763 5778 5792 5795 5765 5803 5813 5809 5815 5821 5798 5800 5821 5827 5826 5828 5827 5824 5823 5825 5820 5818 5812 5802 5790 5783 5775 5765 5757 5749 5742 5739 5729 5717 5707 5696 5684 5677
5712 5722 5711 5721 5720 5735 5745 5764 5784 5757 5752 5791 5800 5799 5808 5793 5792 5803 5811 5808 5813 5812 5812 5814 5817 5817 5816 5806 5796 5787 5779 5770 5760 5749 5743 5739 5730 5721 5714 5704 5694 5682 5662 5659
5693 5707 5699 5705 5710 5714 5754 5764 5753 5756 5766 5776 5780 5790 5790 5789 5794 5797 5793 5796 5801 5803 5802 5802 5801 5808 5800 5798 5785 5772 5766 5761 5751 5739 5729 5722 5716 5706 5700 5692 5685 5683 5663 5657
5688 5696 5692 5696 5695 5719 5729 5735 5743 5752 5761 5766 5775 5773 5779 5783 5781 5781 5777 5783 5783 5781 5787 5783 5788 5789 5787 5785 5777 5762 5752 5750 5737 5728 5717 5707 5698 5695 5691 5688 5681 5677 5666 5654
5692 5690 5685 5697 5710 5711 5724 5735 5737 5742 5745 5752 5759 5764 5770 5767 5774 5776 5770 5767 5765 5765 5764 5769 5771 5763 5761 5764 5759 5748 5738 5733 5723 5708 5697 5689 5685 5685 5685 5689 5676 5663 5657 5642
5685 5696 5689 5685 5695 5701 5713 5720 5726 5727 5732 5740 5750 5751 5752 5758 5760 5765 5759 5756 5756 5755 5752 5744 5749 5739 5736 5734 5729 5721 5710 5705 5700 5697 5687 5682 5675 5668 5665 5659 5660 5650 5638 5630
5675 5681 5684 5681 5694 5707 5695 5706 5711 5714 5712 5721 5724 5727 5729 5736 5733 5736 5739 5731 5727 5728 5722 5724 5729 5724 5716 5716 5720 5709 5702 5687 5685 5681 5677 5672 5673 5669 5652 5643 5633 5625 5625 5619